Dewpoint
57 57 57 57 57 58 58 58 59 60 60 61 61 61 62 62 61 62 62 61 61 60 61 61 62 62 62 63 63 61 59 50 41 38 34 38 54 62 62 63 63 64 63 51 37 32 29 28 27 31 33 37 41 34 41 39 40 40 29 23 23 21 20 21 20 18 22 19 19 19 19 18 17 23 23 23 22 23 22 26 25 26 27 26 30 31 32 30
56 57 57 57 57 58 57 58 59 59 60 60 60 61 61 61 61 61 61 62 61 61 61 62 62 62 63 62 62 61 56 47 37 32 33 57 63 61 63 64 64 65 63 45 33 28 28 25 25 28 29 30 42 35 37 38 38 32 25 24 21 20 20 20 17 17 18 17 18 19 19 19 17 22 22 20 20 21 21 22 24 25 26 26 29 31 29 27
56 56 57 57 57 58 58 58 59 59 60 60 60 61 60 60 61 61 61 61 61 61 61 61 62 62 62 62 61 60 56 42 39 34 39 60 62 63 64 63 64 65 56 40 30 29 26 25 24 24 25 26 33 32 34 37 29 27 28 22 21 26 19 20 18 16 19 20 19 19 19 19 19 20 22 20 18 19 20 20 22 23 24 25 27 28 28 27
57 57 57 57 57 58 58 58 58 59 59 60 60 60 60 60 61 61 61 61 61 61 60 60 61 62 62 61 62 61 55 45 31 31 43 60 62 62 63 64 62 63 58 37 32 30 26 26 25 23 27 27 30 35 29 34 28 31 21 20 21 21 18 17 19 17 20 21 19 19 19 20 19 20 21 20 18 18 19 21 19 22 23 24 26 28 30 28
57 57 57 57 57 58 58 58 58 59 59 60 60 60 60 60 61 61 61 61 61 61 61 60 61 62 62 62 59 58 47 30 31 39 47 61 61 63 61 63 60 53 43 33 30 28 27 26 25 25 29 24 29 27 23 30 28 30 19 19 19 21 17 17 19 22 20 21 20 19 19 19 20 20 20 20 18 17 18 20 21 20 22 22 25 28 31 28
57 57 57 57 57 58 58 58 59 59 59 59 59 60 60 60 60 61 60 61 61 60 61 61 61 62 62 61 59 54 37 8 37 47 56 59 60 59 62 61 60 51 38 27 27 27 27 25 24 26 23 22 23 23 21 21 24 17 18 19 19 18 18 19 19 22 21 20 19 19 19 20 20 19 20 20 19 19 21 21 21 20 21 20 26 29 31 30
57 57 57 57 57 57 58 58 58 58 58 59 59 60 60 59 60 60 60 60 61 61 60 61 61 62 61 60 55 43 35 28 39 52 58 57 55 61 59 58 56 42 30 25 25 28 28 25 23 23 23 22 20 21 21 23 24 20 17 17 18 19 18 18 19 22 21 20 19 19 20 19 19 18 19 19 20 20 20 21 21 21 22 24 26 28 30 30
57 57 57 57 57 57 57 58 58 58 58 59 59 59 60 59 60 60 60 60 61 60 60 61 61 62 61 60 46 35 35 30 41 44 55 54 52 53 56 47 39 40 30 25 22 24 27 26 24 25 23 22 21 19 21 20 20 19 19 18 19 21 20 21 21 21 21 20 20 19 19 18 18 18 19 20 20 20 20 21 22 21 22 24 24 27 30 31
57 57 57 57 57 57 57 57 57 57 58 58 59 59 59 60 60 60 60 60 60 60 60 60 60 61 60 52 40 28 22 48 39 39 43 45 42 42 46 40 36 33 28 25 23 28 30 25 26 25 22 22 21 19 21 19 18 19 18 19 19 19 18 20 21 21 21 21 20 19 19 19 19 21 19 19 20 20 21 21 21 22 22 22 23 25 28 29
57 56 57 56 57 56 57 56 56 57 57 58 58 59 59 60 60 60 60 60 60 60 60 61 61 61 57 43 37 20 42 38 38 40 39 40 39 38 34 39 33 28 25 22 25 26 27 27 32 31 30 25 24 20 22 21 18 19 19 20 19 18 19 20 19 18 21 21 20 19 19 19 19 19 17 19 19 20 19 20 20 21 21 21 22 24 26 28
57 57 56 56 56 56 56 56 56 57 57 58 58 58 59 59 59 60 60 60 60 60 60 60 60 57 48 40 28 15 47 46 38 39 39 42 37 33 43 41 37 35 23 31 23 29 33 29 35 30 32 23 22 21 21 20 21 19 20 18 18 18 19 19 20 18 20 19 20 20 19 19 19 21 18 18 19 18 18 18 19 22 22 21 21 22 28 26
58 57 56 56 56 56 56 56 56 56 57 57 58 58 59 59 59 59 59 59 60 60 61 58 61 55 41 32 26 31 36 41 42 41 40 42 42 46 47 40 37 44 37 24 34 43 43 39 36 26 21 26 21 21 20 21 20 20 19 17 18 17 17 18 18 19 20 17 20 19 18 17 19 18 20 20 20 18 18 18 19 21 21 23 23 22 25 26
58 57 57 57 56 56 56 56 56 56 56 57 57 58 58 59 59 59 59 59 59 60 60 60 51 50 45 31 32 42 41 37 41 41 40 42 41 40 42 45 44 36 37 32 35 44 42 38 35 27 29 26 24 21 23 22 20 19 18 18 17 17 16 17 18 18 19 18 19 18 13 8 17 18 19 19 20 19 18 19 18 21 21 20 23 23 24 26
58 57 57 57 56 56 56 56 56 56 56 56 57 57 58 58 58 58 58 59 61 61 61 59 60 48 38 24 40 41 37 39 39 39 39 43 39 43 42 43 41 37 43 38 41 41 39 31 36 28 30 24 21 27 20 20 19 18 18 18 19 19 17 19 19 19 18 19 19 18 17 9 7 12 19 19 20 19 18 18 19 20 22 21 23 24 24 24
58 58 57 57 57 57 57 56 56 56 56 56 57 57 57 57 57 58 58 61 61 61 59 58 53 46 32 22 36 42 55 38 34 39 42 35 35 37 36 34 36 35 35 36 37 36 33 37 35 26 23 23 26 21 21 20 18 19 18 19 23 20 20 19 20 19 16 19 19 18 20 14 11 10 10 21 20 19 18 18 18 19 20 22 22 23 23 24
58 58 57 57 57 57 57 56 56 56 56 56 56 56 56 57 57 57 60 60 60 61 58 55 45 42 31 17 40 49 43 35 33 45 42 40 43 34 38 36 36 34 30 29 32 30 31 34 28 28 23 22 22 21 20 21 21 21 20 23 22 20 21 19 19 19 17 19 19 17 12 8 7 17 21 21 20 19 19 18 19 19 19 20 22 22 23 25
58 58 57 57 57 56 56 56 56 56 56 56 56 56 56 57 57 57 60 59 59 57 58 39 36 34 19 38 37 33 32 39 42 44 38 37 39 38 33 35 31 30 32 30 33 35 28 26 31 33 27 22 21 24 22 23 21 21 24 22 25 20 16 14 19 20 23 19 17 18 16 14 13 12 17 21 21 20 19 18 18 18 19 19 23 22 23 24
58 57 57 57 57 57 57 56 56 56 56 56 56 56 56 57 57 58 57 57 56 54 48 44 41 35 24 32 25 23 39 37 46 44 43 36 37 32 32 27 32 29 31 27 32 27 29 24 27 23 22 23 21 21 24 16 19 14 10 15 20 17 17 17 16 18 21 19 17 17 18 16 16 16 16 16 20 19 19 18 18 18 18 19 21 23 22 24
58 57 57 57 57 57 57 57 56 56 55 56 56 57 55 56 54 52 45 43 41 36 26 34 30 21 15 26 29 33 45 43 42 41 33 37 38 34 30 30 32 25 27 23 23 24 29 28 33 27 23 21 21 19 19 21 16 12 13 17 18 16 17 16 15 19 18 18 18 17 17 16 17 17 18 17 17 18 18 19 19 19 19 19 20 23 24 26
58 58 57 57 57 57 56 56 56 55 56 54 50 51 51 45 45 34 34 38 26 20 21 27 28 23 25 26 27 41 44 44 35 39 40 37 35 29 26 25 36 31 22 27 29 24 33 25 25 25 22 20 21 21 18 16 15 16 22 24 16 18 18 18 20 19 18 17 17 17 17 17 17 18 18 18 18 18 16 18 20 20 21 22 21 21 24 26
58 58 57 57 56 56 56 55 55 55 56 53 48 43 16 20 24 20 22 22 28 31 23 19 20 21 19 35 43 35 32 32 36 38 38 38 34 26 24 25 27 25 25 24 28 29 29 24 23 24 20 18 16 17 19 19 17 18 18 20 17 24 21 21 21 19 19 20 19 19 19 20 19 19 18 18 16 15 15 15 16 18 19 21 23 24 25 25
57 57 57 57 57 57 56 55 55 56 55 52 48 32 27 38 48 47 33 18 26 31 38 31 29 23 22 24 38 41 34 21 33 37 41 35 30 23 23 23 22 22 24 28 31 30 28 25 22 21 21 23 23 22 21 20 20 20 21 20 22 22 25 23 21 20 19 21 19 19 18 18 18 19 19 18 18 18 17 17 16 17 19 21 23 24 26 27
57 57 57 57 57 57 56 56 55 56 51 46 47 35 45 47 48 49 40 30 28 37 31 30 27 24 21 30 31 33 23 21 17 37 37 37 29 26 23 22 21 19 32 26 25 27 26 26 22 20 26 24 22 21 21 21 23 21 22 24 22 25 26 20 24 21 20 19 21 21 20 21 21 21 21 21 19 19 21 21 24 26 24 25 24 25 27 27
57 57 57 57 57 57 57 56 56 55 51 47 45 47 48 47 48 48 45 26 19 31 34 33 27 23 21 20 33 28 21 18 20 23 36 33 27 28 28 23 18 19 22 24 22 23 22 22 27 25 30 24 22 23 23 21 19 27 27 25 23 25 24 26 22 23 22 21 24 22 24 22 23 21 19 19 21 21 21 21 23 26 32 31 36 35 32 26
57 57 57 57 57 57 56 56 51 49 50 49 44 45 47 47 48 50 37 22 23 28 40 37 40 37 30 39 37 25 24 22 25 34 36 31 25 26 24 23 20 16 19 21 20 23 22 21 33 25 31 27 28 23 28 29 20 22 29 27 25 25 24 25 31 26 23 23 25 24 15 13 13 18 20 23 20 21 22 23 23 22 23 27 28 31 33 36
57 57 57 57 57 57 56 53 50 50 50 47 43 46 45 48 48 48 32 22 21 28 29 21 36 27 38 28 36 29 23 20 32 34 36 36 33 28 22 21 20 18 15 21 18 21 20 29 32 30 33 32 29 26 27 30 23 23 23 33 29 27 28 30 30 28 22 19 23 24 15 16 15 13 13 21 18 18 21 25 21 22 22 24 32 32 31 32
57 57 57 57 57 56 49 44 51 48 49 48 47 48 46 47 48 43 20 14 12 31 24 39 30 29 41 37 31 26 15 20 30 33 35 37 29 32 21 17 22 23 24 25 25 21 27 26 29 32 30 31 30 24 28 27 27 21 33 35 30 29 30 30 29 29 24 27 28 25 23 18 18 17 16 14 10 9 10 11 20 23 15 7 18 31 32 32
57 57 57 57 56 55 49 48 48 47 43 47 49 47 47 46 50 45 13 11 12 34 30 28 33 39 38 33 38 23 21 24 25 29 27 31 29 27 22 16 19 21 21 24 18 36 25 34 31 30 30 27 25 27 35 33 28 28 31 33 31 29 29 30 28 24 25 23 23 23 26 18 18 19 17 14 10 10 10 10 13 14 18 14 16 32 33 31
57 57 56 57 56 54 53 49 48 48 48 50 49 48 46 47 43 26 15 14 31 25 35 27 39 36 33 33 27 27 25 28 20 26 32 29 32 26 23 22 19 21 22 23 17 32 27 33 32 32 30 25 33 26 31 33 27 33 33 31 30 31 29 27 24 23 23 21 21 23 24 17 15 18 16 16 13 11 12 13 13 16 17 22 24 30 32 30
57 57 57 56 54 53 52 50 48 51 50 50 50 46 49 43 30 19 15 15 23 14 21 33 28 28 30 27 26 27 24 25 24 27 28 27 29 30 25 27 24 23 28 24 29 31 30 28 34 31 31 30 26 27 32 31 32 31 31 29 28 28 27 24 24 20 23 20 23 25 24 19 15 18 18 20 20 15 13 11 12 17 25 23 26 29 37 31
57 57 57 56 52 53 50 45 49 51 51 51 49 48 44 34 22 16 18 23 21 23 28 28 24 33 27 26 24 27 28 25 24 24 24 25 25 25 23 25 28 27 27 28 28 32 27 28 30 29 30 29 28 31 31 31 32 34 27 25 26 26 22 21 22 23 19 17 20 24 25 23 16 14 21 12 14 15 8 6 4 8 18 26 28 30 30 29
56 57 57 55 54 54 47 45 50 52 52 51 49 43 33 21 22 15 17 13 18 27 22 26 32 31 28 29 34 29 27 27 25 22 22 24 26 24 24 22 27 22 23 22 23 34 32 31 29 34 33 29 31 28 27 30 30 31 25 23 21 17 19 17 19 17 18 16 19 20 26 23 15 9 11 10 9 7 5 2 2 7 9 18 23 35 32 32
56 56 56 56 54 52 51 51 52 53 52 50 46 37 32 21 20 22 19 19 19 29 23 37 32 30 33 32 30 34 36 29 26 23 28 29 26 28 29 25 29 30 21 27 25 27 27 36 31 33 30 31 31 23 24 23 24 25 23 23 20 17 18 18 17 18 17 24 17 14 24 16 16 13 15 10 9 8 9 11 16 15 14 16 32 36 33 35
57 56 55 56 55 53 54 53 53 52 50 46 39 29 25 17 19 34 25 19 29 26 32 32 33 33 35 28 30 35 28 32 27 25 27 28 26 26 26 28 30 31 29 20 18 21 20 20 28 31 24 32 30 26 26 25 23 23 29 23 21 20 18 14 13 12 15 14 20 23 14 17 8 5 14 12 11 12 10 12 23 32 27 33 34 36 35 34
56 56 57 56 55 54 55 52 53 52 49 43 40 30 22 21 21 18 21 21 30 24 27 32 32 32 30 31 34 34 29 31 32 29 28 28 24 24 25 25 30 30 33 23 26 21 22 20 33 34 34 32 31 35 33 30 27 25 27 28 23 22 22 16 16 20 20 17 18 22 16 14 8 14 14 14 11 12 14 14 20 24 29 33 33 31 30 32
56 56 57 55 54 54 53 53 53 52 49 41 30 24 20 22 18 23 21 19 23 26 29 30 36 29 25 28 34 32 39 30 32 30 28 29 28 26 29 30 29 29 26 23 26 21 22 16 32 32 34 29 28 33 31 31 22 23 25 23 24 29 24 21 23 24 24 17 16 21 14 18 14 12 16 18 10 9 12 13 16 18 21 29 32 34 32 31
54 56 52 54 54 55 54 53 53 51 48 43 31 25 25 27 21 26 24 17 18 18 26 14 23 20 21 19 29 32 33 31 31 28 24 31 27 29 30 29 32 31 27 25 24 26 21 21 28 30 25 28 26 27 30 31 32 25 21 23 31 30 28 24 17 18 16 13 16 19 14 10 12 12 16 13 12 9 11 12 14 18 24 24 29 33 37 35
54 54 54 53 54 54 53 52 51 49 46 38 31 31 29 27 23 19 28 24 22 27 22 17 21 26 17 17 19 27 33 24 27 27 23 27 20 32 31 29 31 31 27 28 21 31 30 19 28 29 28 30 27 27 26 29 30 27 23 33 22 18 18 18 19 15 13 12 11 13 12 13 13 13 14 13 12 11 10 15 14 16 21 25 29 31 33 35
55 53 48 53 56 54 52 52 50 45 40 34 31 32 32 30 23 26 23 15 26 25 18 19 16 25 20 15 18 26 29 21 29 25 21 24 20 33 30 29 32 30 28 27 24 26 30 21 22 26 27 27 26 26 22 23 29 27 29 25 27 17 21 18 18 18 12 11 14 16 19 15 26 15 17 14 12 12 10 14 14 14 17 20 25 30 32 35
51 48 47 55 56 55 53 52 47 43 38 32 34 33 35 33 29 27 23 16 23 15 17 17 20 12 18 19 18 19 31 25 26 25 22 27 20 27 25 31 32 33 27 28 27 32 23 23 20 24 26 26 19 23 21 24 23 21 21 18 21 23 22 20 19 18 13 13 11 12 13 15 18 11 16 15 12 14 13 16 21 21 20 20 24 29 34 37
53 48 47 54 55 54 52 49 42 38 36 38 39 37 36 34 30 28 27 23 25 18 17 22 17 14 18 16 19 20 21 28 27 21 24 22 18 16 28 30 33 33 30 31 30 29 26 20 20 20 19 19 21 26 26 26 26 23 22 20 19 20 18 16 17 22 21 14 14 11 13 17 18 11 11 12 15 17 18 18 25 26 22 23 29 29 32 37
49 42 46 53 53 52 48 40 39 41 38 35 37 37 36 38 34 33 30 28 32 24 23 22 24 25 22 19 20 23 21 22 26 25 26 21 22 18 27 28 32 31 27 24 25 29 25 23 23 21 21 23 26 29 31 31 30 29 22 22 23 20 18 18 15 19 20 18 19 18 14 14 17 15 13 11 12 12 15 18 18 26 26 26 28 32 32 33
47 45 50 52 53 51 46 39 39 38 36 39 41 39 40 38 35 33 30 28 28 28 28 27 21 23 25 22 23 20 23 19 23 24 26 28 24 23 37 26 36 32 28 24 30 28 30 26 23 21 23 24 25 25 29 27 27 26 26 27 24 19 20 18 17 14 18 19 16 16 15 16 20 22 17 16 16 18 16 16 17 16 19 19 26 33 32 36
48 46 45 51 53 51 44 34 34 35 36 39 40 40 41 39 38 35 32 30 28 27 24 24 26 19 21 30 30 19 19 18 23 20 21 30 25 23 28 30 29 29 26 25 22 30 24 25 20 21 21 18 18 21 22 24 26 20 20 23 26 26 26 24 26 20 17 19 18 16 14 16 21 21 19 18 17 16 15 17 19 21 21 23 20 31 32 33
47 46 45 47 51 50 41 42 39 37 36 36 38 38 39 39 40 39 36 33 31 28 29 25 23 26 26 25 24 25 25 21 20 25 25 26 23 34 37 34 26 25 24 34 29 29 22 25 21 17 16 15 17 13 14 21 20 20 22 23 26 26 24 20 19 20 17 20 17 17 14 14 14 14 13 12 17 17 18 18 20 23 23 21 27 30 35 33
43 38 43 43 46 45 45 46 43 41 37 36 36 37 38 38 40 40 40 39 37 34 36 28 32 29 25 26 23 22 23 25 23 20 19 21 21 35 34 39 28 26 30 34 35 25 23 20 21 17 15 18 16 18 23 27 21 19 22 22 23 26 25 25 22 20 17 18 18 19 18 17 16 14 14 11 13 12 11 13 19 21 23 23 27 31 35 35
46 42 40 35 43 43 40 43 41 42 38 39 34 37 36 37 38 38 41 38 40 38 36 32 27 28 27 26 24 24 24 24 25 24 22 21 20 27 30 34 33 33 33 32 34 30 28 18 17 21 19 16 16 18 18 20 20 23 24 23 24 26 27 26 23 19 20 21 17 20 21 22 20 18 16 15 15 15 14 15 15 16 20 31 32 34 33 31
38 41 43 41 37 34 36 36 41 41 41 40 37 38 37 37 38 37 40 40 40 41 37 33 33 31 31 29 28 26 26 25 25 23 25 25 24 23 23 32 30 35 30 30 33 29 25 22 23 21 19 21 20 18 17 17 17 19 23 24 24 26 27 26 25 23 25 21 18 20 21 21 18 17 18 18 17 15 15 12 14 12 14 17 30 30 30 29
44 44 44 46 39 41 39 38 39 39 39 40 38 39 37 37 36 38 39 37 38 37 37 33 32 31 30 30 30 29 28 25 27 28 27 28 28 28 26 27 30 32 29 30 29 30 26 25 27 26 25 24 23 23 23 21 20 20 20 21 24 26 25 24 24 26 25 22 21 20 23 21 19 17 16 12 17 11 8 14 15 17 16 19 26 27 24 24
38 39 39 44 43 41 41 40 39 38 37 38 36 37 38 37 37 38 39 38 35 36 37 34 35 35 33 31 30 29 29 29 30 30 32 30 29 29 27 27 28 28 30 29 29 33 27 25 29 28 27 27 27 27 26 24 23 20 21 21 21 20 20 24 26 26 26 26 25 22 21 20 20 19 18 15 17 19 21 19 17 18 17 18 21 24 24 23
42 43 41 36 33 36 38 38 38 38 36 37 36 36 38 38 38 39 38 40 38 36 36 34 35 36 35 34 33 31 30 30 31 32 33 34 30 31 29 31 31 31 31 29 31 30 29 27 30 28 26 26 28 27 28 27 25 22 20 21 20 20 19 20 23 26 25 24 24 24 24 23 23 24 23 23 18 19 20 17 17 20 18 18 21 22 22 22
41 42 41 37 31 37 36 38 39 38 33 37 38 36 37 37 38 39 37 39 40 40 39 37 36 35 35 36 36 35 33 32 32 33 32 31 36 33 31 36 35 34 31 31 34 29 30 28 27 27 26 24 27 29 27 27 25 24 23 21 22 21 21 21 21 22 24 26 24 23 23 23 23 22 20 20 19 20 21 20 20 21 21 23 24 24 24 24